Starlink 1031

operational
NORAD ID: 44736 Int'l Des: 2019-074 Owner: SPXS Country: US Constellation: starlink
LEOCIRCULAR

Über Starlink 1031

Beschreibung wird geladen...

Live-Position

3D-Globus wird geladen...

Nächste Überflüge

Höhenverlauf

Altitude vs Time

uPlot chart will show altitude changes over time

Zweizeiliger Elementsatz

1 44736U 19074Z 25347.26472911 .00145184 00000-0 17888-2 0 9995
2 44736 53.0474 189.7238 0007698 90.3372 269.8522 15.59218455336080
Epoch: 13. Dez. 2025 • Age: 15 hours

Aktueller Status

Höhe 402.6 km
Geschwindigkeit 7.67 km/s
Subsatellitenpunkt -31.33°S, 113.28°E
Startdatum 11. Nov. 2019
Alter 6 years
Typ internet

Technische Details

Klassifizierung Payload
Masse 260.00 kg
Trockenmasse 248.00 kg
Gesamtmasse 260.00 kg
Länge 0.20 m
Durchmesser 2.80 m
Spannweite 9.00 m
Form Box + pan
Hersteller SPXS
Bus-Typ Starlink
Phasenstatus In Orbit
Besitzer/Staat SPXS/US

Große Konstellationen

Loading constellations...